Presure
223 218 223 223 213 208 255 230 225 166 178 182 183 177 173 176 173 184 182 185 184 180 179 179 174 164 171
201 200 202 206 207 158 228 240 272 274 255 242 232 226 221 218 216 217 211 196 198 193 189 176 180 179 171
188 187 187 187 187 191 193 194 196 199 204 208 218 225 231 241 244 246 244 239 213 214 216 179 192 191 185
184 183 185 185 183 182 182 182 184 183 184 185 185 189 191 195 202 203 209 215 223 227 230 235 237 234 221
182 183 182 180 181 182 182 181 181 181 179 175 186 187 185 186 185 188 184 191 192 195 205 209 214 220 224
180 180 182 183 184 190 186 185 187 184 185 189 193 194 174 176 194 194 192 194 194 193 185 193 193 183 184
185 190 192 191 193 196 202 194 194 192 193 186 185 188 195 185 183 183 181 177 175 174 185 186 184 199 199
209 211 202 212 224 237 217 221 223 213 224 213 227 192 204 198 224 225 224 232 228 219 213 214 232 199 197
227 235 237 243 242 234 229 237 237 239 236 242 244 230 230 234 227 221 218 221 227 234 241 246 245 257 263
244 253 229 217 218 221 228 227 245 240 236 237 243 248 247 262 255 235 269 231 267 305 336 327 242 244 252
232 213 226 226 228 238 242 242 239 260 253 253 245 250 259 267 257 303 330 339 317 335 349 337 334 279 335
234 229 241 236 229 241 242 253 244 250 241 254 265 269 286 291 318 302 349 301 322 337 351 353 355 350 319
241 232 235 249 251 243 258 247 255 254 262 254 277 267 278 324 332 323 346 359 346 341 326 369 362 371 365
248 241 247 248 232 243 254 250 263 256 272 278 277 312 306 320 331 315 369 356 366 369 377 360 366 492 496
236 239 241 246 248 250 263 264 283 281 256 304 299 345 342 310 325 344 357 368 374 429 440 500 490 481 479
249 245 255 253 261 256 271 302 308 316 261 306 303 295 332 368 354 363 372 403 452 484 375 492 478 467 477
253 267 268 276 298 280 268 269 306 321 312 360 341 293 290 370 335 376 492 475 468 470 461 458 465 461 461
Wind_Speed
68 78 80 82 87 88 82 89 91 85 92 97 99 98 97 100 99 102 101 100 99 96 95 93 90 87 89
73 76 77 77 79 78 73 72 70 73 82 88 91 93 95 98 99 98 101 104 103 103 102 95 96 96 91
82 84 85 86 88 86 86 87 87 87 85 84 82 82 82 82 84 86 89 93 100 101 101 101 105 105 102
90 92 93 93 94 95 95 95 95 95 96 95 96 98 97 96 94 95 94 94 93 93 93 93 94 94 100
95 97 98 99 100 100 101 101 100 100 102 102 103 104 105 105 104 105 104 104 103 103 103 102 101 100 99
101 101 103 104 106 106 106 106 107 105 106 114 109 109 106 107 111 112 112 112 111 111 109 109 108 101 100
105 107 108 109 109 110 110 109 110 113 110 113 120 117 119 120 118 116 110 106 105 103 113 110 105 112 110
104 105 106 108 107 103 109 105 109 110 108 110 109 122 123 119 123 125 127 127 129 127 125 125 123 117 116
104 107 107 107 105 101 101 101 102 103 105 105 103 111 114 116 125 133 136 137 137 139 138 136 134 132 128
112 110 105 106 107 107 105 107 110 108 110 110 110 110 107 111 118 126 125 140 131 125 116 110 128 133 134
110 107 110 111 113 114 114 113 115 119 116 116 116 116 121 118 116 123 124 125 121 126 123 113 109 127 92
116 115 120 117 115 120 122 125 118 119 119 125 135 134 131 124 124 111 127 105 124 119 119 117 110 106 93
127 122 123 128 127 123 132 122 132 134 138 126 139 124 123 136 132 119 128 129 122 114 97 119 108 106 95
131 127 130 131 116 126 139 134 143 139 147 146 134 140 135 135 136 106 129 116 119 119 119 107 104 76 72
124 130 134 139 139 142 149 147 146 143 125 144 136 147 143 119 114 124 124 122 122 105 103 72 66 63 58
149 144 151 146 148 146 148 146 142 142 110 135 130 114 125 129 128 123 121 117 91 75 60 63 52 51 46
149 154 154 151 151 143 136 127 140 145 142 131 133 107 100 124 118 118 83 74 70 65 65 60 49 43 41
Wind_Direction
274 275 276 276 274 274 275 274 274 277 276 277 276 280 282 281 282 279 279 277 277 279 280 280 283 288 285
271 273 275 276 278 277 280 279 279 279 275 274 274 274 275 275 275 274 274 274 274 274 275 282 280 280 286
272 273 274 274 275 276 276 277 278 278 278 278 277 276 276 277 277 277 277 276 273 272 272 280 275 277 278
272 273 273 274 275 276 277 278 278 278 279 279 279 278 279 279 277 276 275 275 275 275 275 274 274 273 273
274 275 276 277 277 277 278 279 279 279 281 282 279 278 279 279 279 278 279 278 278 277 276 275 275 273 272
276 277 277 277 278 278 278 279 279 279 281 281 278 278 282 281 277 276 277 277 276 275 279 275 276 282 283
276 275 276 276 277 277 277 278 279 278 278 279 281 279 277 281 281 281 282 282 280 279 280 279 280 276 276
282 282 280 279 282 283 279 281 279 280 279 275 274 278 277 279 277 275 275 272 272 273 274 274 272 276 277
285 288 288 287 286 282 280 283 282 282 280 281 279 273 275 276 275 274 276 275 276 275 274 272 271 269 267
289 289 285 281 280 280 281 279 287 282 279 278 280 281 277 290 287 282 290 278 282 289 294 289 280 276 272
287 281 285 285 284 288 289 287 285 293 290 290 284 288 293 291 281 292 294 294 292 295 293 291 290 279 280
288 288 289 287 286 288 289 293 289 292 286 293 296 293 295 294 297 293 295 287 292 295 292 292 291 288 275
288 287 288 291 291 290 295 293 296 296 297 292 298 291 294 296 295 295 296 294 295 296 290 294 291 290 287
290 290 292 294 286 293 296 296 297 297 297 296 295 295 295 295 295 295 295 296 295 293 292 292 294 282 277
290 291 293 295 293 295 294 295 293 295 293 293 295 292 293 295 295 296 297 296 294 293 291 288 285 282 278
292 291 292 293 293 293 293 290 291 292 291 294 294 293 293 291 294 294 295 294 293 291 289 287 282 279 274
291 288 290 292 287 290 290 292 294 293 294 289 290 294 294 292 296 294 293 292 289 287 287 286 285 278 271